KE8GJZ-1 Weather Reports


time (UTC)temp
F
wind
direction
speed
knots
gust
knots
rain 1hr
in
rain 24hr
in
rain mn
in
humidity
%
barometer
mb
20260507001452 51 230 0.0 0.0 0.00 0.00 0.00 47 1010.8
20260507000949 51 251 0.0 0.0 0.00 0.00 0.00 48 1010.8
20260507000445 51 253 0.0 0.0 0.00 0.00 0.00 47 1010.7
20260506235940 51 234 0.0 0.0 0.00 0.00 0.00 45 1010.7
20260506235438 51 262 0.0 0.0 0.00 0.00 0.00 45 1010.9
20260506234933 51 238 0.0 0.0 0.00 0.00 0.00 46 1010.8
20260506234432 52 262 0.0 0.0 0.00 0.00 0.00 44 1010.7
20260506233929 52 323 0.0 0.0 0.00 0.00 0.00 45 1010.8
20260506233425 52 258 0.0 0.0 0.00 0.00 0.00 44 1010.8
20260506232922 52 186 0.0 0.9 0.00 0.00 0.00 42 1010.9
20260506232418 52 97 0.0 0.9 0.00 0.00 0.00 43 1010.7
20260506231914 52 182 0.0 0.9 0.00 0.00 0.00 43 1010.5
20260506231412 52 233 0.0 0.0 0.00 0.00 0.00 45 1010.6
20260506230909 53 275 0.0 0.9 0.00 0.00 0.00 44 1010.8
20260506230405 53 239 0.0 0.0 0.00 0.00 0.00 46 1010.6
20260506225902 53 239 0.0 0.0 0.00 0.00 0.00 45 1010.4
20260506225359 53 279 0.0 0.0 0.00 0.00 0.00 45 1010.3
20260506224856 53 278 0.0 0.0 0.00 0.00 0.00 44 1010.4
20260506224354 53 207 0.0 0.0 0.00 0.00 0.00 45 1010.6
20260506223849 53 284 0.0 0.0 0.00 0.00 0.00 42 1010.5
20260506223345 53 275 0.0 0.0 0.00 0.00 0.00 44 1010.6
20260506222842 53 196 0.0 0.0 0.00 0.00 0.00 43 1010.5
20260506222338 53 188 0.0 0.0 0.00 0.00 0.00 42 1010.4
20260506221836 53 271 0.0 0.9 0.00 0.00 0.00 45 1010.6
20260506221333 54 235 0.0 0.0 0.00 0.00 0.00 43 1010.2
20260506220831 54 285 0.0 0.0 0.00 0.00 0.00 43 1010.5
20260506220326 54 260 0.0 0.9 0.00 0.00 0.00 42 1010.8
20260506215823 54 307 0.0 0.0 0.00 0.00 0.00 42 1010.5
20260506215319 54 294 0.0 0.0 0.00 0.00 0.00 45 1010.8
20260506214815 54 188 0.0 0.9 0.00 0.00 0.00 44 1010.6
20260506214311 55 212 0.0 0.0 0.00 0.00 0.00 42 1010.4
20260506213810 55 200 0.0 0.0 0.00 0.00 0.00 43 1010.5
20260506213307 55 284 0.0 0.0 0.00 0.00 0.00 43 1010.5
20260506212804 55 227 0.0 0.0 0.00 0.00 0.00 44 1010.4
20260506212300 55 16 0.0 0.9 0.00 0.00 0.00 44 1010.5
20260506211755 55 324 0.9 1.7 0.00 0.00 0.00 43 1010.5
20260506211251 55 300 0.9 0.9 0.00 0.00 0.00 42 1010.5
20260506210749 55 166 0.9 0.9 0.00 0.00 0.00 43 1010.7
20260506210245 55 271 0.0 0.0 0.00 0.00 0.00 43 1010.4
20260506205742 54 220 0.0 0.9 0.00 0.00 0.00 44 1010.4
20260506205238 54 160 0.0 0.9 0.00 0.00 0.00 41 1010.6
20260506204735 55 230 0.0 0.0 0.00 0.00 0.00 44 1010.5
20260506204232 55 281 0.9 1.7 0.00 0.00 0.00 44 1010.5
20260506203731 56 171 0.9 1.7 0.00 0.00 0.00 41 1010.7
20260506203227 55 231 0.0 0.0 0.00 0.00 0.00 41 1010.4
20260506202725 54 177 0.0 0.0 0.00 0.00 0.00 43 1010.6
20260506202221 54 286 0.0 0.0 0.00 0.00 0.00 43 1010.9
20260506201718 54 290 0.0 0.0 0.00 0.00 0.00 42 1010.6
20260506201215 54 279 0.0 0.0 0.00 0.00 0.00 43 1010.6
20260506200712 55 296 0.0 0.0 0.00 0.00 0.00 41 1010.8
20260506200209 55 295 0.0 0.0 0.00 0.00 0.00 40 1010.8
20260506195705 56 278 0.9 1.7 0.00 0.00 0.00 41 1010.5
20260506195201 57 178 0.0 0.0 0.00 0.00 0.00 39 1010.7
20260506194659 55 298 0.9 0.9 0.00 0.00 0.00 42 1011.0
20260506194155 55 286 0.9 1.7 0.00 0.00 0.00 42 1010.8
20260506193653 57 73 0.0 0.0 0.00 0.00 0.00 40 1010.9
20260506193149 55 29 0.0 0.9 0.00 0.00 0.00 43 1010.8
20260506192646 55 184 0.0 0.9 0.00 0.00 0.00 43 1010.8
20260506192142 55 280 0.0 0.0 0.00 0.00 0.00 41 1010.9
20260506191640 55 154 1.7 1.7 0.00 0.00 0.00 42 1011.0
20260506191135 56 246 0.0 0.0 0.00 0.00 0.00 42 1011.1
20260506190633 55 230 0.0 0.0 0.00 0.00 0.00 43 1011.2
20260506190130 54 160 0.0 0.9 0.00 0.00 0.00 45 1011.1
20260506185627 54 325 0.0 0.9 0.00 0.00 0.00 43 1011.3
20260506185123 54 255 0.0 0.0 0.00 0.00 0.00 46 1011.0
20260506184620 53 249 0.0 0.0 0.00 0.00 0.00 43 1010.9
20260506184118 54 317 0.9 0.9 0.00 0.00 0.00 43 1010.9
20260506183614 54 184 0.0 0.9 0.00 0.00 0.00 42 1010.9
20260506183110 54 23 0.9 1.7 0.00 0.00 0.00 45 1011.0
20260506182608 54 200 0.0 0.9 0.00 0.00 0.00 47 1010.5
20260506182105 53 343 0.9 1.7 0.00 0.00 0.00 42 1010.8
20260506181603 53 223 0.0 0.9 0.00 0.00 0.00 41 1010.7
20260506181059 54 264 0.0 0.0 0.00 0.00 0.00 41 1010.8
20260506180556 54 212 0.0 0.0 0.00 0.00 0.00 45 1010.8
20260506180053 55 85 0.0 0.0 0.00 0.00 0.00 46 1011.0
20260506175549 54 149 2.6 2.6 0.00 0.00 0.00 43 1010.8
20260506175045 55 243 0.0 0.0 0.00 0.00 0.00 46 1010.7
20260506174544 53 105 0.0 0.0 0.00 0.00 0.00 50 1010.9
20260506174039 54 169 0.9 0.9 0.00 0.00 0.00 45 1010.8
20260506173538 53 320 0.9 0.9 0.00 0.00 0.00 50 1011.2
20260506173034 52 175 0.9 0.9 0.00 0.00 0.00 48 1011.3
20260506172532 52 147 0.9 0.9 0.00 0.00 0.00 48 1011.3
20260506172028 51 325 0.9 1.7 0.00 0.00 0.00 50 1011.3
20260506171525 51 151 0.9 0.9 0.00 0.00 0.00 49 1011.7
20260506171023 52 240 0.0 0.0 0.00 0.00 0.00 50 1011.4
20260506170520 52 307 1.7 1.7 0.00 0.00 0.00 47 1011.3
20260506170012 52 287 1.7 1.7 0.00 0.00 0.00 49 1011.0
20260506165510 53 145 0.0 0.0 0.00 0.00 0.00 49 1011.4
20260506165006 53 269 0.0 0.9 0.00 0.00 0.00 47 1011.3
20260506164503 54 247 0.0 0.0 0.00 0.00 0.00 48 1011.2
20260506164001 53 25 0.0 0.0 0.00 0.00 0.00 49 1011.2
20260506163456 52 302 0.0 0.0 0.00 0.00 0.00 50 1011.2
20260506162950 51 284 0.9 0.9 0.00 0.00 0.00 52 1011.1
20260506162449 52 301 0.0 0.9 0.00 0.00 0.00 52 1011.3
20260506161945 52 291 0.0 0.0 0.00 0.00 0.00 53 1011.2
20260506161443 52 334 1.7 1.7 0.00 0.00 0.00 51 1011.1
20260506160940 52 297 0.0 0.9 0.00 0.00 0.00 52 1011.1
20260506160438 53 289 0.0 0.9 0.00 0.00 0.00 48 1011.5
20260506155935 53 325 0.9 1.7 0.00 0.00 0.00 53 1011.2
20260506155432 52 184 0.0 0.9 0.00 0.00 0.00 50 1011.2
20260506153554 53 112 1.7 1.7 0.00 0.00 0.00 49 1011.1
20260506153052 54 252 0.9 1.7 0.00 0.00 0.00 50 1010.8
20260506152548 55 286 0.9 0.9 0.00 0.00 0.00 48 1011.0
20260506152046 56 308 0.9 0.9 0.00 0.00 0.00 48 1010.8
20260506151544 55 250 0.9 0.9 0.00 0.00 0.00 49 1010.9
20260506151041 54 331 0.9 0.9 0.00 0.00 0.00 51 1011.0
20260506150537 55 176 0.0 0.0 0.00 0.00 0.00 50 1010.9
20260506150035 53 51 0.9 0.9 0.00 0.00 0.00 51 1010.8
20260506145531 52 292 0.9 1.7 0.00 0.00 0.00 49 1010.6
20260506145029 53 205 0.0 0.9 0.00 0.00 0.00 51 1010.7
20260506144525 52 327 0.9 0.9 0.00 0.00 0.00 51 1010.7
20260506144023 53 112 0.9 0.9 0.00 0.00 0.00 53 1010.6
20260506143520 53 40 0.0 0.0 0.00 0.00 0.00 51 1010.6
20260506143019 53 343 1.7 1.7 0.00 0.00 0.00 51 1010.4
20260506142516 55 305 0.0 0.0 0.00 0.00 0.00 50 1010.3
20260506142014 54 221 0.0 0.0 0.00 0.00 0.00 47 1010.4
20260506141512 54 146 0.9 0.9 0.00 0.00 0.00 49 1009.9
20260506141010 53 158 1.7 1.7 0.00 0.00 0.00 50 1010.5
20260506140507 53 281 0.0 0.0 0.00 0.00 0.00 49 1010.2
20260506140004 53 311 0.9 0.9 0.00 0.00 0.00 51 1010.2
20260506135500 54 358 0.0 0.0 0.00 0.00 0.00 47 1009.9
20260506134956 52 290 0.9 1.7 0.00 0.00 0.00 55 1009.8
20260506134453 51 165 0.9 0.9 0.00 0.00 0.00 52 1009.8
20260506133949 51 297 0.9 0.9 0.00 0.00 0.00 50 1009.9
20260506133446 50 306 0.0 0.0 0.00 0.00 0.00 54 1009.9
20260506132943 50 282 0.0 0.0 0.00 0.00 0.00 55 1010.1
20260506132440 50 307 0.0 0.9 0.00 0.00 0.00 56 1009.8
20260506131938 49 259 0.0 0.9 0.00 0.00 0.00 56 1009.7
20260506131434 49 218 0.0 0.0 0.00 0.00 0.00 58 1009.7
20260506130931 47 235 0.0 0.9 0.00 0.00 0.00 61 1009.7
20260506130428 47 294 0.9 0.9 0.00 0.00 0.00 60 1009.4
20260506125926 46 269 0.0 0.0 0.00 0.00 0.00 60 1009.5
20260506125424 46 233 0.0 0.0 0.00 0.00 0.00 60 1009.4
20260506124922 45 290 0.9 0.9 0.00 0.00 0.00 62 1009.3
20260506124419 45 339 0.0 0.9 0.00 0.00 0.00 63 1009.2
20260506123917 45 304 0.0 0.9 0.00 0.00 0.00 65 1009.4
20260506123414 44 276 0.0 0.0 0.00 0.00 0.00 64 1009.5
20260506122912 44 244 0.0 0.0 0.00 0.00 0.00 66 1009.2
20260506122408 44 320 0.0 0.0 0.00 0.00 0.00 67 1009.0
20260506121907 43 300 0.0 0.0 0.00 0.00 0.00 67 1009.1
20260506121403 43 102 0.0 0.0 0.00 0.00 0.00 68 1008.9
20260506120900 42 269 0.0 0.9 0.00 0.00 0.00 70 1009.0
20260506120358 42 239 0.0 0.0 0.00 0.00 0.00 70 1008.7
20260506115855 42 232 0.0 0.0 0.00 0.00 0.00 70 1008.6
20260506115353 42 202 0.0 0.0 0.00 0.00 0.00 72 1008.9
20260506114851 42 283 0.0 0.0 0.00 0.00 0.00 70 1008.9
20260506114348 42 277 0.0 0.0 0.00 0.00 0.00 72 1008.6
20260506113847 42 278 0.0 0.0 0.00 0.00 0.00 72 1009.0
20260506113344 41 248 0.0 0.0 0.00 0.00 0.00 75 1009.0
20260506112840 41 242 0.0 0.0 0.00 0.00 0.00 76 1008.5
20260506112338 41 232 0.0 0.0 0.00 0.00 0.00 76 1008.6
20260506111835 41 231 0.0 0.0 0.00 0.00 0.00 75 1008.3
20260506111333 41 248 0.0 0.0 0.00 0.00 0.00 75 1008.4
20260506110831 41 248 0.0 0.0 0.00 0.00 0.00 75 1008.5
20260506110327 41 247 0.0 0.0 0.00 0.00 0.00 75 1008.3
20260506105824 41 245 0.0 0.0 0.00 0.00 0.00 73 1008.5
20260506105321 41 226 0.0 0.0 0.00 0.00 0.00 73 1008.3
20260506104818 41 225 0.0 0.0 0.00 0.00 0.00 72 1008.1
20260506104316 42 250 0.0 0.0 0.00 0.00 0.00 72 1008.0
20260506103813 42 250 0.0 0.0 0.00 0.00 0.00 70 1008.0
20260506103311 42 249 0.0 0.0 0.00 0.00 0.00 70 1007.7
20260506102808 43 249 0.0 0.0 0.00 0.00 0.00 69 1008.1
20260506102306 43 246 0.0 0.0 0.00 0.00 0.00 69 1007.9
20260506101803 43 275 0.0 0.0 0.00 0.00 0.00 69 1007.7
20260506101259 44 297 0.0 0.0 0.00 0.00 0.00 67 1007.7
20260506100757 44 273 0.0 0.0 0.00 0.00 0.00 67 1007.8
20260506100255 44 275 0.0 0.0 0.00 0.00 0.00 67 1007.8
20260506095753 44 275 0.0 0.0 0.00 0.00 0.00 66 1008.0
20260506095250 44 275 0.0 0.0 0.00 0.00 0.00 67 1007.8
20260506094746 44 256 0.0 0.0 0.00 0.00 0.00 66 1007.7
20260506094245 44 248 0.0 0.0 0.00 0.00 0.00 67 1007.4
20260506093743 44 247 0.0 0.0 0.00 0.00 0.00 66 1007.5
20260506093240 44 286 0.0 0.0 0.00 0.00 0.00 65 1007.3
20260506092738 44 250 0.0 0.0 0.00 0.00 0.00 66 1007.2
20260506092236 44 267 0.0 0.0 0.00 0.00 0.00 66 1007.2
20260506091732 44 246 0.0 0.0 0.00 0.00 0.00 67 1007.0
20260506091230 44 248 0.0 0.0 0.00 0.00 0.00 67 1007.2
20260506090728 45 296 0.0 0.0 0.00 0.00 0.00 67 1007.1
20260506090224 45 297 0.0 0.0 0.00 0.00 0.00 66 1007.4
20260506085721 45 268 0.0 0.0 0.00 0.00 0.00 66 1007.6
20260506085217 45 276 0.0 0.9 0.00 0.00 0.00 66 1007.2
20260506084714 45 237 0.0 0.0 0.00 0.00 0.00 67 1007.0
20260506084210 45 267 0.0 0.0 0.00 0.00 0.00 66 1007.0
20260506083707 45 239 0.0 0.0 0.00 0.00 0.00 66 1007.0
20260506083205 45 304 0.0 0.0 0.00 0.00 0.00 66 1007.1
20260506082702 45 264 0.0 0.0 0.00 0.00 0.00 66 1007.3
20260506082203 45 264 0.0 0.0 0.00 0.00 0.00 69 1007.0
20260506081701 45 298 0.0 0.0 0.00 0.00 0.00 68 1007.1
20260506081158 45 298 0.0 0.0 0.00 0.00 0.00 69 1007.1
20260506080656 45 298 0.0 0.0 0.00 0.00 0.00 68 1007.2
20260506080152 45 33 0.0 0.0 0.00 0.00 0.00 70 1007.0
20260506073136 45 98 0.0 0.0 0.00 0.00 0.00 69 1007.4
20260506072633 45 98 0.0 0.0 0.00 0.00 0.00 69 1007.2
20260506072131 45 98 0.0 0.0 0.00 0.00 0.00 69 1007.3
20260506071628 46 98 0.0 0.0 0.00 0.00 0.00 69 1007.0
20260506071126 46 265 0.0 0.0 0.00 0.00 0.00 69 1007.0
20260506070622 46 265 0.0 0.0 0.00 0.00 0.00 67 1007.2
20260506070120 46 265 0.0 0.0 0.00 0.00 0.00 67 1007.1
20260506062057 46 250 0.0 0.0 0.00 0.00 0.00 65 1007.3
20260506061552 46 264 0.0 0.0 0.00 0.00 0.00 67 1007.1
20260506061050 46 263 0.0 0.0 0.00 0.00 0.00 67 1007.4
20260506060549 46 284 0.0 0.0 0.00 0.00 0.00 65 1007.2
20260506051017 46 292 0.0 0.0 0.00 0.00 0.00 70 1007.2
20260506050515 46 292 0.0 0.0 0.00 0.00 0.00 69 1007.1
20260506045005 46 292 0.0 0.0 0.00 0.00 0.00 69 1007.4
20260506044503 46 292 0.0 0.0 0.00 0.00 0.00 69 1007.3
20260506044000 46 292 0.0 0.0 0.00 0.00 0.00 69 1007.2
20260506043457 47 247 0.0 0.0 0.00 0.00 0.00 70 1007.1
20260506042955 47 247 0.0 0.0 0.00 0.00 0.00 69 1007.1
20260506042449 47 247 0.0 0.0 0.00 0.00 0.00 68 1006.9
20260506041946 47 246 0.0 0.0 0.00 0.00 0.00 67 1007.1
20260506041444 47 313 0.9 0.9 0.00 0.00 0.00 65 1007.1
20260506040941 47 215 0.0 0.0 0.00 0.00 0.00 66 1007.0
20260506040438 47 215 0.0 0.0 0.00 0.00 0.00 67 1006.9
20260506035934 47 296 0.0 0.0 0.00 0.06 0.06 68 1007.1
20260506035432 47 296 0.0 0.0 0.00 0.06 0.06 67 1007.1
20260506034928 47 296 0.0 0.0 0.00 0.06 0.06 68 1006.9
20260506034426 47 240 0.0 0.0 0.00 0.06 0.06 67 1006.9
20260506033923 47 262 0.0 0.0 0.00 0.06 0.06 67 1007.0
20260506033420 47 191 0.0 0.0 0.00 0.06 0.06 62 1007.0
20260506032917 47 286 0.0 0.0 0.00 0.06 0.06 64 1007.0
20260506032414 47 256 0.0 0.0 0.00 0.06 0.06 65 1006.9
20260506031910 47 257 0.0 0.0 0.00 0.06 0.06 64 1007.0
20260506031408 47 257 0.0 0.0 0.00 0.06 0.06 65 1007.1
20260506030905 48 194 0.0 0.0 0.00 0.06 0.06 66 1007.0
20260506030403 48 194 0.0 0.0 0.00 0.06 0.06 62 1007.1
20260506025900 48 194 0.0 0.0 0.00 0.06 0.06 64 1007.2
20260506025356 48 193 0.0 0.0 0.00 0.06 0.06 61 1007.1
20260506024854 48 240 0.0 0.0 0.00 0.06 0.06 61 1006.8
20260506024351 48 285 0.0 0.0 0.00 0.06 0.06 62 1006.8
20260506023846 48 284 0.0 0.0 0.00 0.06 0.06 61 1007.2
20260506023344 48 286 0.0 0.0 0.00 0.06 0.06 61 1007.2
20260506022840 48 270 0.0 0.0 0.00 0.06 0.06 63 1007.2
20260506022338 48 221 0.0 0.0 0.00 0.06 0.06 62 1007.1
20260506021836 48 260 0.0 0.0 0.00 0.06 0.06 61 1007.0
20260506021333 48 260 0.0 0.0 0.00 0.06 0.06 62 1006.8
20260506020829 48 261 0.0 0.0 0.00 0.06 0.06 63 1006.8
20260506020327 48 261 0.0 0.0 0.00 0.06 0.06 60 1006.8
20260506015824 48 260 0.0 0.0 0.00 0.06 0.06 60 1006.9
20260506015322 48 261 0.0 0.0 0.00 0.06 0.06 59 1006.8
20260506014818 48 261 0.0 0.0 0.00 0.06 0.06 60 1006.9
20260506014315 48 243 0.0 0.0 0.00 0.06 0.06 59 1006.7
20260506013812 49 258 0.0 0.0 0.00 0.06 0.06 59 1006.8
20260506013309 49 250 0.0 0.0 0.00 0.06 0.06 58 1006.5
20260506012806 49 234 0.0 0.0 0.00 0.06 0.06 59 1006.7
20260506012307 49 292 0.0 0.0 0.00 0.06 0.06 60 1006.7
20260506011800 49 292 0.0 0.0 0.00 0.06 0.06 60 1006.5
20260506011256 49 300 0.9 0.9 0.00 0.06 0.06 60 1006.3
20260506010754 49 234 0.0 0.0 0.00 0.06 0.06 56 1005.9
20260506010252 49 191 0.0 0.0 0.00 0.06 0.06 57 1006.3
20260506005749 49 191 0.0 0.0 0.00 0.06 0.06 56 1006.4
20260506005245 49 275 0.0 0.0 0.00 0.06 0.06 57 1006.4
20260506004741 50 274 0.0 0.0 0.00 0.06 0.06 54 1006.5
20260506004239 50 191 0.0 0.0 0.00 0.06 0.06 54 1006.4
20260506003735 50 237 0.0 0.0 0.00 0.06 0.06 55 1006.7
20260506003231 50 238 0.0 0.0 0.00 0.06 0.06 55 1006.7
20260506002727 50 260 0.0 0.0 0.00 0.06 0.06 53 1006.6
20260506002224 50 276 0.0 0.0 0.00 0.06 0.06 51 1006.5
20260506001720 50 312 1.7 1.7 0.00 0.06 0.06 53 1006.5